• In Hungary
  • List of Countries
  • For 7 days
  • Water Temperature
  • Satellite Maps
  • Weather Map
  • News
  • Weather Widgets
  • user-avatar
    Login

    Hourly Weather Sychevka

    Today, 24 September, Monday

    Time Temperature Precipitation Wind Pressure Humidity
    00:00 +10°C° 0.3 mm 3 mps 746 mmHg 86%
    01:00 +9°C° 0 mm 3 mps 747 mmHg 87%
    02:00 +9°C° 0 mm 3 mps 747 mmHg 88%
    03:00 +9°C° 0 mm 3 mps 747 mmHg 90%
    04:00 +8°C° 0 mm 3 mps 747 mmHg 91%
    05:00 +8°C° 0 mm 3 mps 747 mmHg 92%
    06:00 +8°C° 0 mm 2 mps 747 mmHg 93%
    07:00 +9°C° 0 mm 3 mps 747 mmHg 88%
    08:00 +10°C° 0 mm 3 mps 748 mmHg 83%
    09:00 +11°C° 0 mm 3 mps 748 mmHg 77%
    10:00 +13°C° 0 mm 3 mps 748 mmHg 70%
    11:00 +14°C° 0 mm 4 mps 748 mmHg 62%
    12:00 +15°C° 0 mm 4 mps 748 mmHg 55%
    13:00 +15°C° 0 mm 4 mps 747 mmHg 55%
    14:00 +15°C° 0 mm 4 mps 746 mmHg 54%
    15:00 +15°C° 0 mm 4 mps 746 mmHg 54%
    16:00 +14°C° 0.1 mm 4 mps 745 mmHg 56%
    17:00 +14°C° 0.1 mm 3 mps 745 mmHg 58%
    18:00 +13°C° 0.1 mm 3 mps 744 mmHg 61%
    19:00 +13°C° 0.5 mm 4 mps 744 mmHg 64%
    20:00 +13°C° 0.5 mm 5 mps 743 mmHg 66%
    21:00 +13°C° 0.5 mm 6 mps 743 mmHg 69%
    22:00 +13°C° 0.8 mm 6 mps 742 mmHg 70%
    23:00 +11°C° 0.8 mm 7 mps 742 mmHg 72%

    Tomorrow, 25 September, Tuesday

    Time Temperature Precipitation Wind Pressure Humidity
    00:00 +11°C° 0.8 mm 7 mps 741 mmHg 73%
    01:00 +11°C° 0.4 mm 7 mps 741 mmHg 75%
    02:00 +11°C° 0.4 mm 7 mps 740 mmHg 78%
    03:00 +11°C° 0.4 mm 6 mps 740 mmHg 80%
    04:00 +10°C° 0.4 mm 6 mps 740 mmHg 81%
    05:00 +10°C° 0.4 mm 5 mps 739 mmHg 83%
    06:00 +9°C° 0.4 mm 5 mps 739 mmHg 85%
    07:00 +9°C° 0.2 mm 5 mps 740 mmHg 82%
    08:00 +9°C° 0.2 mm 5 mps 740 mmHg 80%
    09:00 +9°C° 0.2 mm 6 mps 740 mmHg 78%
    10:00 +9°C° 0 mm 6 mps 741 mmHg 76%
    11:00 +9°C° 0 mm 6 mps 741 mmHg 74%
    12:00 +9°C° 0 mm 6 mps 742 mmHg 71%
    13:00 +10°C° 0 mm 6 mps 742 mmHg 70%
    14:00 +10°C° 0 mm 6 mps 742 mmHg 69%
    15:00 +10°C° 0 mm 6 mps 743 mmHg 68%
    16:00 +10°C° 0.1 mm 6 mps 743 mmHg 70%
    17:00 +9°C° 0.1 mm 6 mps 743 mmHg 73%
    18:00 +9°C° 0.1 mm 6 mps 744 mmHg 75%
    19:00 +8°C° 0 mm 5 mps 744 mmHg 77%
    20:00 +7°C° 0 mm 5 mps 745 mmHg 79%
    21:00 +7°C° 0 mm 5 mps 745 mmHg 80%
    22:00 +6°C° 0 mm 5 mps 746 mmHg 80%
    23:00 +6°C° 0 mm 5 mps 747 mmHg 80%

    Day after tomorrow, 26 September, Wednesday

    Time Temperature Precipitation Wind Pressure Humidity
    00:00 +6°C° 0 mm 5 mps 747 mmHg 80%
    01:00 +6°C° 0 mm 5 mps 748 mmHg 80%
    02:00 +6°C° 0 mm 5 mps 748 mmHg 81%
    03:00 +5°C° 0 mm 5 mps 749 mmHg 81%
    04:00 +5°C° 0 mm 5 mps 750 mmHg 81%
    05:00 +5°C° 0 mm 5 mps 750 mmHg 82%
    06:00 +3°C° 0 mm 5 mps 751 mmHg 82%
    07:00 +5°C° 0 mm 5 mps 752 mmHg 79%
    08:00 +6°C° 0 mm 5 mps 752 mmHg 76%
    09:00 +6°C° 0 mm 5 mps 753 mmHg 73%
    10:00 +7°C° 0 mm 5 mps 754 mmHg 69%
    11:00 +7°C° 0 mm 5 mps 754 mmHg 65%
    12:00 +8°C° 0 mm 5 mps 754 mmHg 61%
    13:00 +8°C° 0 mm 5 mps 755 mmHg 58%
    14:00 +10°C° 0 mm 4 mps 755 mmHg 54%
    15:00 +11°C° 0 mm 4 mps 755 mmHg 51%
    16:00 +10°C° 0 mm 4 mps 755 mmHg 54%
    17:00 +9°C° 0 mm 3 mps 755 mmHg 57%
    18:00 +8°C° 0 mm 2 mps 755 mmHg 59%
    19:00 +7°C° 0 mm 2 mps 756 mmHg 61%
    20:00 +6°C° 0 mm 2 mps 756 mmHg 62%
    21:00 +6°C° 0 mm 2 mps 756 mmHg 63%
    22:00 +4°C° 0 mm 3 mps 756 mmHg 64%
    23:00 +4°C° 0 mm 3 mps 755 mmHg 65%

    27 September, Thursday

    Time Temperature Precipitation Wind Pressure Humidity
    00:00 +4°C° 0 mm 3 mps 755 mmHg 66%
    01:00 +4°C° 0 mm 3 mps 755 mmHg 66%
    02:00 +4°C° 0 mm 4 mps 754 mmHg 67%
    03:00 +4°C° 0 mm 4 mps 754 mmHg 67%
    04:00 +3°C° 0 mm 5 mps 753 mmHg 66%
    05:00 +3°C° 0 mm 6 mps 753 mmHg 64%
    06:00 +3°C° 0 mm 6 mps 752 mmHg 63%
    07:00 +4°C° 0.3 mm 7 mps 751 mmHg 64%
    08:00 +4°C° 0.3 mm 7 mps 751 mmHg 64%
    09:00 +4°C° 0.3 mm 8 mps 750 mmHg 65%
    10:00 +5°C° 0.9 mm 9 mps 750 mmHg 67%
    11:00 +5°C° 0.9 mm 9 mps 749 mmHg 70%
    12:00 +5°C° 0.9 mm 9 mps 749 mmHg 72%
    13:00 +5°C° 0.4 mm 9 mps 749 mmHg 74%
    14:00 +5°C° 0.4 mm 8 mps 748 mmHg 76%
    15:00 +6°C° 0.4 mm 8 mps 748 mmHg 78%
    16:00 +6°C° 0.2 mm 8 mps 748 mmHg 80%
    17:00 +6°C° 0.2 mm 7 mps 748 mmHg 82%
    18:00 +7°C° 0.2 mm 6 mps 748 mmHg 84%
    19:00 +7°C° 0.1 mm 6 mps 748 mmHg 85%
    20:00 +7°C° 0.1 mm 5 mps 748 mmHg 86%
    21:00 +6°C° 0.1 mm 5 mps 748 mmHg 87%
    22:00 +7°C° 0.1 mm 5 mps 748 mmHg 88%
    23:00 +7°C° 0.1 mm 5 mps 748 mmHg 89%

    28 September, Friday

    Time Temperature Precipitation Wind Pressure Humidity
    00:00 +7°C° 0.1 mm 5 mps 748 mmHg 90%
    01:00 +7°C° 0 mm 4 mps 747 mmHg 90%
    02:00 +7°C° 0 mm 4 mps 747 mmHg 91%
    03:00 +8°C° 0 mm 4 mps 747 mmHg 92%
    04:00 +8°C° 0 mm 5 mps 746 mmHg 91%
    05:00 +8°C° 0 mm 5 mps 746 mmHg 91%
    06:00 +8°C° 0 mm 6 mps 746 mmHg 91%
    07:00 +9°C° 0 mm 7 mps 745 mmHg 89%
    08:00 +10°C° 0 mm 7 mps 745 mmHg 87%
    09:00 +10°C° 0 mm 8 mps 745 mmHg 85%
    10:00 +11°C° 0 mm 8 mps 744 mmHg 82%
    11:00 +12°C° 0 mm 8 mps 744 mmHg 79%
    12:00 +13°C° 0 mm 8 mps 744 mmHg 76%
    13:00 +13°C° 0 mm 8 mps 744 mmHg 75%
    14:00 +15°C° 0 mm 8 mps 744 mmHg 74%
    15:00 +15°C° 0 mm 7 mps 743 mmHg 74%
    16:00 +15°C° 0.2 mm 7 mps 744 mmHg 76%
    17:00 +14°C° 0.2 mm 7 mps 744 mmHg 78%
    18:00 +14°C° 0.2 mm 7 mps 745 mmHg 81%
    19:00 +13°C° 0 mm 6 mps 746 mmHg 82%
    20:00 +11°C° 0 mm 4 mps 746 mmHg 83%
    21:00 +10°C° 0 mm 3 mps 747 mmHg 84%
    22:00 +9°C° 0 mm 3 mps 748 mmHg 86%
    23:00 +9°C° 0 mm 2 mps 748 mmHg 87%

    29 September, Saturday

    Time Temperature Precipitation Wind Pressure Humidity
    00:00 +8°C° 0 mm 2 mps 749 mmHg 89%
    01:00 +7°C° 0 mm 2 mps 749 mmHg 89%
    02:00 +7°C° 0 mm 2 mps 749 mmHg 90%
    03:00 +7°C° 0 mm 2 mps 750 mmHg 90%
    04:00 +7°C° 0 mm 2 mps 750 mmHg 90%
    05:00 +6°C° 0 mm 2 mps 751 mmHg 91%
    06:00 +6°C° 0 mm 2 mps 751 mmHg 91%
    07:00 +7°C° 0 mm 2 mps 751 mmHg 86%
    08:00 +8°C° 0 mm 2 mps 752 mmHg 80%
    09:00 +9°C° 0 mm 2 mps 752 mmHg 75%
    10:00 +10°C° 0 mm 2 mps 752 mmHg 70%
    11:00 +12°C° 0 mm 2 mps 752 mmHg 65%
    12:00 +13°C° 0 mm 2 mps 753 mmHg 60%
    13:00 +13°C° 0 mm 2 mps 753 mmHg 58%
    14:00 +12°C° 0 mm 3 mps 752 mmHg 55%
    15:00 +12°C° 0 mm 3 mps 752 mmHg 53%
    16:00 +11°C° 0 mm 3 mps 753 mmHg 55%
    17:00 +12°C° 0 mm 2 mps 753 mmHg 57%
    18:00 +10°C° 0 mm 2 mps 753 mmHg 59%
    19:00 +9°C° 0.1 mm 2 mps 754 mmHg 61%
    20:00 +9°C° 0.1 mm 2 mps 754 mmHg 62%
    21:00 +9°C° 0.1 mm 2 mps 754 mmHg 64%
    22:00 +8°C° 0.1 mm 2 mps 755 mmHg 65%
    23:00 +8°C° 0.1 mm 2 mps 755 mmHg 65%
    Show more

    3.3.7123123